FW6715 Weather Reports


time (UTC)temp
F
wind
direction
speed
knots
gust
knots
rain 1hr
in
rain 24hr
in
rain mn
in
humidity
%
barometer
mb
20260504194826 68 223 13.0 19.1 0.00 0.00 0.00 40 1002.5
20260504194322 69 281 5.2 6.1 0.00 0.00 0.00 43 1002.6
20260504193818 68 274 1.7 7.8 0.00 0.00 0.00 43 1002.8
20260504193316 67 292 6.1 11.3 0.00 0.00 0.00 44 1002.8
20260504192814 67 294 9.6 12.2 0.00 0.00 0.00 45 1003.1
20260504192312 66 315 8.7 15.6 0.00 0.00 0.00 45 1003.1
20260504191810 66 309 7.8 8.7 0.00 0.00 0.00 46 1003.2
20260504191307 67 301 7.8 9.6 0.00 0.00 0.00 45 1003.3
20260504190802 67 323 11.3 17.4 0.00 0.00 0.00 45 1003.0
20260504190259 67 357 0.9 2.6 0.00 0.00 0.00 45 1003.0
20260504185755 66 311 5.2 8.7 0.00 0.00 0.00 47 1003.3
20260504185252 66 291 9.6 12.2 0.00 0.00 0.00 46 1003.3
20260504184748 66 319 6.1 7.8 0.00 0.00 0.00 47 1003.5
20260504184244 66 327 4.3 7.0 0.00 0.00 0.00 47 1003.6
20260504183740 64 341 4.3 14.8 0.00 0.00 0.00 49 1003.5
20260504183237 66 21 5.2 7.0 0.00 0.00 0.00 50 1003.7
20260504182735 67 69 1.7 2.6 0.00 0.00 0.00 48 1004.0
20260504182232 65 114 0.0 1.7 0.00 0.00 0.00 51 1003.9
20260504181730 64 131 2.6 5.2 0.00 0.00 0.00 51 1004.0
20260504181227 64 241 1.7 2.6 0.00 0.00 0.00 52 1003.7
20260504180726 62 241 0.9 4.3 0.00 0.00 0.00 53 1003.9
20260504180225 62 241 0.9 7.0 0.00 0.00 0.00 56 1004.1
20260504175722 62 242 6.1 8.7 0.00 0.00 0.00 55 1004.2
20260504175218 62 242 0.9 0.9 0.00 0.00 0.00 55 1004.2
20260504174716 60 241 0.9 4.3 0.00 0.00 0.00 54 1004.2
20260504174214 60 241 4.3 7.0 0.00 0.00 0.00 54 1004.5
20260504173710 59 242 0.0 2.6 0.00 0.00 0.00 57 1004.5
20260504173208 59 242 5.2 8.7 0.00 0.00 0.00 54 1004.6
20260504172704 60 242 1.7 5.2 0.00 0.00 0.00 55 1004.6
20260504172200 59 242 5.2 8.7 0.00 0.00 0.00 55 1004.5
20260504171657 59 241 13.9 15.6 0.00 0.00 0.00 54 1004.4
20260504171154 60 235 6.1 7.0 0.00 0.00 0.00 54 1004.5
20260504170650 60 235 7.8 15.6 0.00 0.00 0.00 54 1004.1
20260504170148 60 234 9.6 11.3 0.00 0.00 0.00 53 1004.1
20260504160106 60 245 1.7 5.2 0.00 0.00 0.00 52 1003.8
20260504151028 59 245 3.5 5.2 0.00 0.00 0.00 50 1004.0
20260504150525 59 244 8.7 13.0 0.00 0.00 0.00 51 1004.1
20260504140951 57 124 0.9 0.9 0.00 0.00 0.00 56 1004.7
20260504140447 59 124 3.5 5.2 0.00 0.00 0.00 55 1004.6
20260504130412 52 1 0.9 1.7 0.00 0.00 0.00 72 1005.7
20260504110259 35 1 1.7 1.7 0.00 0.00 0.00 94 1006.6
20260504100217 34 2 0.0 0.0 0.00 0.00 0.00 95 1006.5
20260504090140 33 2 0.0 0.0 0.00 0.00 0.00 95 1006.3
20260504081610 33 4 0.0 0.0 0.00 0.00 0.00 95 1006.5
20260504081106 33 4 1.7 1.7 0.00 0.00 0.00 95 1006.7
20260504080603 33 4 0.0 0.9 0.00 0.00 0.00 95 1006.7
20260504050415 29 336 0.0 0.0 0.00 0.00 0.00 98 1006.4
20260504045912 29 336 0.9 0.9 0.00 0.00 0.00 98 1006.5
20260504045408 29 336 0.9 0.9 0.00 0.00 0.00 98 1006.4
20260504044905 29 336 0.0 0.9 0.00 0.00 0.00 98 1006.4
20260504044402 29 336 0.9 0.9 0.00 0.00 0.00 97 1006.5
20260504043900 29 336 0.0 0.9 0.00 0.00 0.00 97 1006.4
20260504043356 29 336 0.0 0.9 0.00 0.00 0.00 97 1006.5
20260504042854 29 336 0.0 1.7 0.00 0.00 0.00 97 1006.6
20260504042350 29 336 0.0 0.9 0.00 0.00 0.00 97 1006.5
20260504041846 29 336 0.9 0.9 0.00 0.00 0.00 97 1006.4
20260504041343 30 336 0.0 0.0 0.00 0.00 0.00 97 1006.5
20260504040839 30 336 0.0 0.9 0.00 0.00 0.00 97 1006.5
20260504040337 30 336 0.0 0.9 0.00 0.00 0.00 96 1006.1
20260504035832 30 336 0.0 0.0 0.00 0.01 0.01 96 1006.4
20260504035330 30 336 0.0 0.9 0.00 0.01 0.01 96 1006.1
20260504034827 29 336 0.0 0.9 0.00 0.01 0.01 95 1006.3
20260504034324 30 336 1.7 1.7 0.00 0.01 0.01 95 1006.2
20260504033821 31 336 0.0 0.9 0.00 0.01 0.01 95 1006.5
20260504033319 30 336 0.9 1.7 0.00 0.01 0.01 95 1006.1
20260504032815 31 336 0.0 0.9 0.00 0.01 0.01 94 1006.3
20260504032313 31 336 0.0 0.9 0.00 0.01 0.01 94 1006.3
20260504031809 31 336 0.9 1.7 0.00 0.01 0.01 93 1006.2
20260504031307 32 336 0.9 0.9 0.00 0.01 0.01 93 1006.3
20260504030803 32 336 0.9 0.9 0.00 0.01 0.01 92 1006.3
20260504030300 32 336 0.0 0.9 0.00 0.01 0.01 91 1006.2
20260504025756 32 336 0.0 0.0 0.00 0.01 0.01 91 1006.1
20260504025253 33 336 0.0 0.0 0.00 0.01 0.01 90 1006.3
20260504024750 33 336 0.0 0.0 0.00 0.01 0.01 89 1006.1
20260504024247 33 336 0.0 0.9 0.00 0.01 0.01 90 1006.2
20260504023744 33 336 0.0 0.9 0.00 0.01 0.01 88 1006.0
20260504023240 34 336 0.0 0.9 0.00 0.01 0.01 88 1006.1
20260504022736 33 336 0.9 0.9 0.00 0.01 0.01 88 1006.2
20260504022232 33 336 0.9 1.7 0.00 0.01 0.01 88 1006.5
20260504021729 35 336 0.9 0.9 0.00 0.01 0.01 87 1006.6
20260504021227 35 336 0.9 0.9 0.00 0.01 0.01 86 1006.4
20260504020723 35 336 0.9 0.9 0.00 0.01 0.01 85 1006.3
20260504020220 35 336 0.0 0.9 0.00 0.01 0.01 84 1006.2
20260504015716 35 336 0.0 0.0 0.00 0.01 0.01 84 1006.3
20260504015213 36 336 0.0 0.9 0.00 0.01 0.01 83 1006.6
20260504014708 36 336 0.9 0.9 0.00 0.01 0.01 81 1006.3
20260504014205 36 336 0.0 0.9 0.00 0.01 0.01 81 1006.3
20260504013703 37 336 0.0 0.9 0.00 0.01 0.01 80 1006.1
20260504013200 37 336 0.9 2.6 0.00 0.01 0.01 81 1006.2
20260504012657 36 336 0.0 0.9 0.00 0.01 0.01 82 1006.3
20260504012155 38 336 0.0 0.9 0.00 0.01 0.01 78 1006.3
20260504011652 37 336 0.0 1.7 0.00 0.01 0.01 79 1006.1
20260504011148 37 336 0.9 2.6 0.00 0.01 0.01 80 1006.0
20260504010644 38 336 1.7 2.6 0.00 0.01 0.01 78 1006.0
20260504010140 39 336 1.7 1.7 0.00 0.01 0.01 75 1006.0
20260504005637 39 336 1.7 1.7 0.00 0.01 0.01 74 1005.9
20260504005133 40 336 2.6 2.6 0.00 0.01 0.01 74 1005.8
20260504004632 43 335 0.0 0.9 0.00 0.01 0.01 65 1005.8
20260504004129 45 335 2.6 4.3 0.00 0.01 0.01 58 1005.6
20260504003625 45 335 1.7 2.6 0.00 0.01 0.01 57 1005.5
20260504003121 45 335 1.7 2.6 0.00 0.01 0.01 58 1005.6
20260504002618 46 335 1.7 2.6 0.00 0.01 0.01 56 1005.4
20260504002116 46 335 2.6 4.3 0.00 0.01 0.01 56 1005.5
20260504001614 46 334 2.6 2.6 0.00 0.01 0.01 56 1005.4
20260504001109 46 333 3.5 6.1 0.00 0.01 0.01 56 1005.5
20260504000607 46 332 4.3 6.1 0.00 0.01 0.01 55 1005.3
20260504000104 46 332 2.6 4.3 0.00 0.01 0.01 56 1005.5
20260503235603 46 332 2.6 5.2 0.00 0.01 0.01 54 1005.2
20260503235059 46 329 3.5 4.3 0.00 0.01 0.01 55 1005.2
20260503234557 46 333 3.5 4.3 0.00 0.01 0.01 55 1005.0
20260503234054 46 333 3.5 5.2 0.00 0.01 0.01 55 1005.2
20260503233551 47 333 3.5 4.3 0.00 0.01 0.01 54 1005.0
20260503233047 47 333 3.5 4.3 0.00 0.01 0.01 54 1005.1
20260503232544 47 333 3.5 4.3 0.00 0.01 0.01 54 1005.0
20260503232041 47 336 2.6 6.1 0.00 0.01 0.01 54 1004.9
20260503231539 48 337 4.3 5.2 0.00 0.01 0.01 53 1004.9
20260503231035 47 341 0.9 4.3 0.00 0.01 0.01 54 1005.0
20260503230532 48 348 4.3 8.7 0.00 0.01 0.01 52 1004.9
20260503230030 48 340 6.1 7.8 0.00 0.01 0.01 52 1005.2
20260503225527 48 1 11.3 14.8 0.00 0.01 0.01 52 1004.8
20260503225021 49 54 4.3 4.3 0.00 0.01 0.01 54 1004.9
20260503224519 48 12 3.5 7.0 0.00 0.01 0.01 53 1004.9
20260503224017 48 28 4.3 9.6 0.00 0.01 0.01 53 1004.8
20260503223515 48 331 4.3 11.3 0.00 0.01 0.01 53 1004.7
20260503223010 48 5 5.2 13.0 0.00 0.01 0.01 54 1004.9
20260503222508 48 99 7.8 18.2 0.00 0.01 0.01 53 1004.8
20260503222006 48 334 7.0 12.2 0.00 0.01 0.01 53 1004.5
20260503221504 48 311 8.7 13.9 0.00 0.01 0.01 53 1004.9
20260503221001 48 344 7.0 18.2 0.00 0.01 0.01 54 1004.7
20260503220457 48 44 7.8 8.7 0.00 0.01 0.01 53 1004.7
20260503215954 48 47 1.7 4.3 0.00 0.01 0.01 54 1004.7
20260503215451 48 35 4.3 7.8 0.00 0.01 0.01 53 1004.7
20260503214949 48 344 7.8 8.7 0.00 0.01 0.01 54 1004.6
20260503214447 48 355 7.8 9.6 0.00 0.01 0.01 54 1004.5
20260503213943 48 60 4.3 7.0 0.00 0.01 0.01 54 1004.5
20260503213442 48 52 0.9 6.1 0.00 0.01 0.01 54 1004.8
20260503212937 48 58 0.0 4.3 0.00 0.01 0.01 55 1004.9
20260503212435 48 59 2.6 7.8 0.00 0.01 0.01 55 1004.5
20260503211932 48 68 3.5 6.1 0.00 0.01 0.01 55 1004.7
20260503211429 48 56 3.5 11.3 0.00 0.01 0.01 55 1004.6
20260503210925 48 55 1.7 4.3 0.00 0.01 0.01 56 1004.6
20260503210422 48 53 2.6 5.2 0.00 0.01 0.01 54 1004.7
20260503205917 48 12 7.0 8.7 0.00 0.01 0.01 53 1004.4
20260503205414 48 38 4.3 7.8 0.00 0.01 0.01 51 1004.7
20260503204910 48 338 6.1 9.6 0.00 0.01 0.01 51 1004.3
20260503204408 48 17 8.7 13.0 0.00 0.01 0.01 51 1004.4
20260503203905 48 356 7.0 13.9 0.00 0.01 0.01 53 1004.4
20260503203402 48 319 9.6 15.6 0.00 0.01 0.01 51 1004.4
20260503202858 48 3 13.0 17.4 0.00 0.01 0.01 51 1004.4
20260503202357 48 339 11.3 22.6 0.00 0.01 0.01 50 1004.2
20260503201855 49 319 7.0 14.8 0.00 0.01 0.01 50 1004.2
20260503201352 50 31 8.7 26.9 0.00 0.01 0.01 49 1004.3
20260503200849 50 88 6.1 13.9 0.00 0.01 0.01 50 1004.1
20260503200345 48 30 3.5 11.3 0.00 0.01 0.01 50 1004.3
20260503195842 48 305 13.9 18.2 0.00 0.01 0.01 51 1004.2
20260503195338 48 302 10.4 14.8 0.00 0.01 0.01 52 1004.4